Probability
6 7 9 9 8 7 6 4 3 2 1 0 0 0 0 0 0 0 0 0 0 0 0 0 0 0 0 1 2 2 2 3 2 2 3 5 6 6
5 6 7 7 7 7 6 4 3 3 1 0 0 0 0 0 0 0 0 0 0 0 0 0 0 0 0 0 1 1 1 2 2 1 2 3 4 4
3 3 5 6 6 6 6 5 4 4 2 1 0 0 0 0 0 0 0 0 0 0 0 0 0 0 0 0 0 0 0 1 1 0 0 1 2 2
1 2 4 4 5 6 7 6 6 5 3 1 1 1 1 0 0 0 0 1 1 0 0 0 0 0 0 0 0 0 0 0 0 0 0 0 0 1
1 2 3 3 4 6 7 7 6 4 3 2 2 2 2 1 0 0 0 1 1 0 0 0 0 0 0 0 0 0 0 0 0 0 0 0 0 0
0 1 2 3 4 4 5 5 5 4 3 3 3 3 3 2 1 0 0 0 0 1 1 1 0 0 0 0 0 0 0 0 0 0 0 0 0 0
0 0 1 3 3 3 3 4 4 3 3 3 3 3 3 3 2 0 0 0 0 1 2 2 1 0 0 0 0 0 0 0 0 0 0 0 0 0
0 0 1 2 3 3 3 3 3 3 3 3 3 3 3 2 1 0 0 0 0 1 2 2 2 1 1 0 0 0 0 0 0 0 0 0 0 0
0 0 1 3 3 3 3 3 3 3 3 3 3 2 1 1 0 0 0 0 0 0 1 1 1 1 1 0 0 0 0 0 0 0 0 0 0 0
0 1 2 3 3 3 3 3 3 2 2 2 2 1 0 0 0 0 0 0 0 0 0 0 0 1 1 0 0 0 0 0 0 0 0 0 0 0
0 1 2 2 1 1 2 3 2 1 0 1 1 0 0 0 0 0 0 0 0 0 0 0 0 0 0 0 0 0 0 0 0 0 0 0 0 0
0 0 1 1 0 1 1 1 1 0 0 0 0 0 0 0 0 0 0 0 0 0 0 0 0 0 0 0 0 0 0 0 0 0 0 0 0 0
0 0 0 0 0 0 0 0 0 0 0 0 0 0 0 0 0 0 0 0 0 0 0 0 0 0 0 0 0 0 0 0 0 0 0 0 0 0
0 0 0 0 0 0 0 0 0 0 0 0 0 0 0 0 0 0 0 0 0 0 0 0 0 0 0 0 0 0 0 0 0 0 0 0 0 0
0 0 0 0 0 0 0 0 0 0 0 0 0 0 0 0 0 0 0 0 0 0 0 0 1 1 0 0 0 0 0 0 0 0 0 0 0 0
0 0 0 0 0 0 0 0 0 0 0 0 0 0 0 0 0 0 0 0 0 0 0 0 1 1 0 0 0 0 0 0 0 0 0 0 0 0
0 0 0 0 0 0 0 0 0 0 0 0 0 0 0 0 0 0 0 0 0 0 0 0 1 1 0 0 0 0 0 0 0 0 0 0 0 0
0 0 0 0 0 0 0 0 0 0 0 0 0 0 0 0 0 0 0 0 0 0 0 0 0 0 0 0 0 0 0 0 0 0 0 0 0 0
0 0 0 0 0 0 0 0 0 0 0 0 0 0 0 0 0 0 0 0 0 0 0 0 0 0 0 0 0 0 0 0 0 0 0 0 0 0
0 0 0 0 0 0 0 0 0 0 0 0 0 0 0 0 0 0 0 0 0 0 0 0 0 0 0 0 0 0 0 0 0 0 0 0 0 0
0 0 0 0 0 0 0 0 0 0 0 0 0 0 0 0 0 0 0 0 0 0 0 0 0 0 0 0 0 0 0 0 0 0 0 0 0 0
0 0 0 0 0 0 0 0 0 0 0 0 0 0 0 0 0 0 0 0 0 0 0 0 0 0 0 0 0 0 0 0 0 0 0 0 0 0
0 0 0 0 0 0 0 0 0 0 0 0 0 0 0 0 0 0 0 0 0 0 0 0 0 0 0 0 0 0 0 0 0 0 0 0 0 0
Wind_Speed
3 3 3 2 2 2 2 3 3 3 3 3 3 3 3 3 5 4 5 6 8 8 8 9 9 9 10 10 9 9 9 9 10 10 12 13 13 14
2 3 3 2 2 2 2 2 3 3 4 3 3 3 3 4 4 4 5 7 8 8 9 9 9 9 9 10 10 9 9 9 10 11 12 13 14 14
3 4 4 3 2 2 2 3 3 3 4 4 3 3 3 4 3 3 4 4 5 8 9 9 9 9 9 10 9 10 10 10 11 11 12 12 13 13
3 3 4 3 3 3 3 3 3 4 4 4 3 2 3 3 3 3 3 3 3 5 7 7 8 8 9 10 10 10 10 10 10 10 10 11 12 13
4 4 4 3 4 3 3 3 3 3 3 3 3 2 2 2 2 2 2 2 3 3 5 6 7 7 8 9 9 9 10 10 9 9 9 10 11 12
4 4 4 5 5 5 4 4 4 3 3 3 3 2 2 2 1 2 2 2 2 2 2 2 4 5 7 7 8 9 9 9 9 9 9 10 10 11
3 4 4 5 6 5 4 4 4 3 3 3 3 2 2 1 2 1 2 2 2 2 2 2 2 2 3 5 7 8 8 9 9 9 10 10 10 11
3 3 4 4 5 5 5 4 5 4 4 4 3 3 3 3 2 2 1 1 2 1 1 3 2 3 3 3 5 7 7 8 8 9 9 9 10 10
3 3 3 3 4 3 4 4 4 5 6 5 4 4 4 4 3 3 2 3 3 2 2 3 2 4 4 4 5 6 7 7 8 8 8 8 9 9
3 3 3 3 3 3 2 2 2 3 4 4 4 5 4 4 4 4 3 3 3 2 3 3 3 3 3 3 5 6 6 7 7 7 7 8 8 8
2 2 2 3 3 2 2 2 3 3 2 3 3 3 4 4 3 2 2 2 2 2 2 3 2 2 3 3 3 4 5 6 6 6 7 7 7 7
2 2 2 2 2 2 2 3 3 4 2 2 2 2 2 2 3 3 3 3 2 2 2 2 2 1 2 2 2 2 2 4 6 6 6 6 6 5
1 2 2 2 2 2 2 3 4 3 2 2 2 2 2 2 2 2 3 3 3 3 2 2 2 2 2 2 2 2 2 2 2 3 5 6 6 6
2 2 2 3 3 3 2 2 2 2 1 1 2 2 2 2 2 2 3 3 4 5 4 3 3 3 2 3 3 2 2 2 2 2 3 4 5 7
1 2 3 3 3 2 2 2 1 1 1 1 2 3 3 3 2 2 1 2 3 3 3 4 4 3 3 3 3 3 3 2 2 3 2 3 3 3
2 2 3 3 2 2 2 1 1 1 1 2 2 3 2 2 1 1 1 1 2 2 2 3 4 4 3 4 4 4 3 3 2 2 2 2 3 3
0 1 2 2 3 3 2 2 2 1 1 1 2 1 1 1 1 1 1 1 1 2 2 2 2 2 4 3 4 4 3 3 3 3 2 3 3 3
2 1 1 2 2 2 2 3 2 2 2 1 1 1 1 1 1 1 1 1 2 2 2 2 1 1 1 2 4 5 4 3 3 2 3 3 3 2
1 0 1 2 2 2 2 2 2 2 2 1 1 1 1 1 1 1 1 1 2 2 2 2 1 1 2 3 2 2 3 3 2 2 2 3 3 3
0 1 2 2 2 2 2 2 2 2 2 1 1 1 1 1 1 2 2 2 2 2 2 1 1 2 3 3 3 2 2 3 2 2 2 2 2 2
2 2 3 3 2 2 2 2 2 2 2 2 1 2 1 1 1 2 2 2 2 2 2 3 2 3 2 1 2 2 2 1 2 2 2 2 2 1
2 3 3 3 2 2 2 2 2 2 2 2 2 2 1 1 2 2 2 2 2 2 3 3 2 1 1 2 2 2 2 1 1 1 1 2 2 2
3 3 3 3 2 2 2 2 2 2 2 2 2 2 1 1 2 2 2 3 3 2 2 2 1 0 1 1 1 1 1 1 1 2 2 2 1 0
Wind_Direction
213 211 212 218 208 209 202 197 201 245 262 254 255 258 256 253 251 246 248 248 244 240 239 240 239 235 233 229 227 227 228 230 233 232 230 228 229 231
212 209 217 221 215 209 208 210 208 217 245 251 249 262 259 259 252 250 252 257 249 243 240 237 235 231 231 229 227 228 229 231 233 234 235 232 230 231
223 213 219 213 214 214 208 204 208 209 237 261 257 261 245 256 268 254 254 251 252 246 241 237 231 230 233 232 231 232 232 232 233 237 238 235 232 231
224 220 226 216 218 220 217 216 216 212 221 254 268 270 258 263 262 256 260 254 253 251 242 239 234 231 232 233 231 230 231 233 235 237 238 235 232 230
223 222 227 217 230 230 228 227 226 222 216 235 260 265 273 288 281 279 278 276 272 265 245 240 239 235 234 234 233 232 232 233 234 236 238 236 234 232
231 230 229 223 227 228 228 228 224 222 221 233 252 263 267 286 262 275 289 300 296 296 293 272 255 249 245 241 238 235 233 232 233 235 236 236 234 232
242 240 238 236 233 224 227 223 216 218 225 232 249 258 260 262 257 259 273 303 300 290 297 293 287 270 257 251 246 240 237 235 233 233 235 236 234 231
248 256 258 248 246 238 240 232 220 214 220 219 232 240 250 247 246 244 251 274 284 273 268 279 270 270 269 258 250 242 237 235 232 231 232 233 231 228
245 249 257 260 245 242 248 250 239 229 216 213 226 238 238 231 220 232 228 232 251 261 257 271 257 262 268 263 248 243 239 237 233 231 232 232 231 228
254 239 247 267 254 227 225 240 245 239 228 216 225 241 244 238 220 217 228 245 263 254 227 259 266 264 272 269 254 239 237 236 234 231 231 229 226 225
299 293 258 254 263 219 205 236 259 262 248 231 234 245 247 245 224 198 206 225 266 274 224 240 263 274 278 273 266 244 245 244 240 234 231 228 225 222
327 325 309 278 273 242 215 222 247 263 265 277 271 278 271 260 222 211 210 219 244 263 223 219 254 271 283 273 279 272 250 243 239 234 229 226 218 212
316 317 313 316 315 293 236 228 238 244 243 243 270 282 287 275 247 229 219 216 226 247 233 210 244 242 248 278 290 281 262 256 243 234 225 220 212 205
267 284 297 322 332 322 283 270 259 243 252 257 272 279 281 278 269 255 239 233 236 250 250 223 233 230 238 260 270 277 266 253 249 250 239 219 212 209
266 285 307 321 323 324 320 310 274 227 230 246 261 266 264 264 266 264 263 252 265 263 249 230 226 229 233 247 261 262 276 270 241 235 231 224 218 207
293 319 331 344 350 333 333 338 313 243 229 250 259 265 271 272 267 266 276 286 284 290 271 251 233 219 231 240 247 256 248 252 243 233 235 239 230 221
321 20 14 6 6 357 348 339 333 330 293 276 267 279 285 284 285 279 261 258 261 286 300 305 264 242 237 238 244 248 250 247 247 242 222 234 238 229
99 38 343 337 335 330 330 332 332 325 306 289 286 280 282 285 292 297 274 261 267 276 283 290 293 284 268 252 228 246 253 257 253 235 225 237 254 247
100 330 301 302 301 299 302 313 316 316 311 300 295 292 286 285 289 293 286 281 280 278 281 281 274 254 271 286 291 233 241 254 260 253 236 233 248 260
288 278 282 284 286 288 293 300 306 315 318 302 290 289 284 280 287 295 299 300 297 299 301 293 263 244 246 268 286 300 257 238 241 246 250 249 259 261
277 273 272 275 276 275 277 284 291 298 302 293 290 288 277 270 275 281 288 298 293 296 294 291 285 270 260 248 260 280 301 253 227 237 246 250 264 262
276 276 278 274 266 260 261 269 283 293 298 287 290 286 281 275 277 285 289 287 282 281 284 291 301 276 218 226 260 292 309 341 30 350 316 264 251 239
271 273 276 275 266 263 262 268 274 281 285 283 284 286 280 273 276 277 278 277 282 282 283 292 300 270 222 218 249 288 324 342 5 18 11 34 72 284